Wetbulb
50.60 50.49 50.52 50.11 49.97 49.97 50.00 49.95 50.29 50.52 50.90 50.84 50.82 50.82 50.64 50.48 50.20 49.59 47.67 49.15 44.66 39.17 39.98 44.69 44.79 41.29 40.82 39.80 37.48 43.65 42.08 46.41 46.67 45.70 46.58 46.48 48.70 49.56 49.43 52.66 52.36 51.29 50.39 50.27 52.24 49.82 47.78 57.48 58.15 54.29 58.96 63.34 62.74 62.97
50.67 50.58 50.30 50.20 50.07 49.95 50.01 50.01 50.20 50.42 50.61 50.61 50.01 49.83 50.05 49.67 48.96 49.50 44.71 49.71 51.18 42.13 40.58 47.52 47.51 48.13 46.68 45.84 42.47 42.97 42.62 44.10 43.30 44.03 46.48 47.17 49.00 52.94 52.18 48.33 57.11 50.75 54.46 52.61 54.07 53.89 57.69 58.32 57.87 60.30 61.02 61.75 64.45 63.89
50.55 50.68 50.65 50.61 50.53 50.48 50.58 50.41 50.21 50.17 50.18 49.71 49.26 49.42 49.22 49.11 48.70 49.11 48.11 47.67 45.63 40.96 40.84 44.00 44.32 48.72 50.42 49.02 50.18 40.98 45.14 44.61 46.10 48.78 45.32 46.75 46.38 52.62 49.69 51.25 54.46 56.63 59.55 55.55 54.70 54.92 56.52 57.75 57.87 59.38 60.92 60.61 62.33 65.61
50.13 50.31 50.68 50.53 50.09 49.87 49.84 49.87 49.98 49.54 48.96 48.76 49.00 49.24 49.22 48.94 48.85 49.07 47.42 50.11 46.96 42.38 36.96 41.87 49.19 47.64 51.40 51.53 48.91 47.95 47.84 49.82 47.70 46.89 46.58 45.13 46.45 53.76 51.91 53.98 53.83 53.05 56.32 55.98 54.75 55.65 54.93 56.38 57.95 58.50 58.43 60.33 61.18 63.32
49.89 49.77 49.84 49.87 49.89 49.73 49.66 49.52 49.17 48.87 48.78 48.68 48.68 49.24 48.70 48.82 49.23 50.20 49.75 49.16 48.88 42.44 37.72 40.37 46.13 50.73 51.86 49.23 49.51 48.84 47.31 44.87 44.79 42.78 45.22 43.70 48.51 50.04 54.01 52.92 46.61 48.79 49.77 54.38 52.92 56.93 56.59 55.51 56.62 57.67 57.06 57.99 59.46 59.78
50.21 50.21 49.68 49.69 50.02 50.03 49.73 49.43 48.98 49.14 49.05 48.92 48.85 49.72 49.28 49.21 48.84 47.59 43.34 46.06 47.83 47.63 39.92 35.64 47.59 48.27 51.54 50.96 49.56 48.04 48.45 46.95 46.08 45.21 46.36 47.66 49.23 48.93 49.66 45.74 47.20 50.80 54.27 55.01 56.51 58.73 56.82 55.60 53.60 54.68 53.96 54.83 56.48 57.42
50.07 49.68 49.47 49.32 49.34 49.55 49.15 48.93 48.93 48.78 48.74 48.89 49.37 49.24 48.98 49.48 49.01 44.66 42.16 46.32 47.79 48.19 38.41 37.20 41.27 49.96 50.83 50.47 49.01 48.84 48.91 47.21 47.18 46.40 47.10 47.13 48.90 50.87 46.49 41.91 47.16 51.21 54.88 57.48 58.71 56.82 51.90 51.39 50.03 53.11 53.87 54.95 54.66 55.63
49.31 49.20 49.18 49.29 49.66 49.28 49.30 49.26 49.13 49.08 48.86 48.82 49.04 49.03 49.53 49.99 48.92 45.50 48.69 49.06 48.53 43.14 41.62 36.33 37.94 46.00 51.20 45.37 44.56 48.97 45.48 46.61 45.96 45.93 47.98 47.27 49.35 48.53 42.96 46.18 49.10 50.70 52.51 50.92 52.23 53.44 52.14 53.05 52.93 52.87 54.85 54.83 54.28 54.94
49.87 49.82 49.65 49.70 49.85 49.97 49.45 49.34 49.41 49.46 49.59 49.45 49.47 49.18 49.34 47.29 44.29 45.05 49.83 50.45 48.87 42.60 34.02 36.71 37.60 39.52 51.12 47.02 45.75 45.72 46.33 42.44 48.39 47.65 47.02 47.70 44.61 41.82 45.63 47.27 48.61 50.25 49.81 49.56 51.27 51.47 52.34 52.12 52.47 53.40 54.00 53.84 54.71 53.52
50.31 50.29 50.13 49.90 50.22 50.01 49.74 49.62 49.83 50.33 50.09 49.39 49.54 47.82 44.34 48.28 49.95 49.95 46.52 42.40 42.41 42.02 41.13 37.31 45.43 43.15 48.15 47.45 43.50 43.73 46.15 44.04 42.33 46.31 49.20 43.24 43.14 47.97 49.68 50.48 51.66 50.98 51.42 51.92 48.83 48.31 48.96 50.51 52.50 53.38 53.69 55.41 55.83 56.28
50.18 50.28 50.22 50.21 50.11 49.74 49.90 49.87 50.03 49.98 50.46 49.05 45.46 44.21 50.14 51.44 49.29 46.90 42.11 40.73 41.26 36.78 38.55 41.35 45.83 43.89 49.53 45.18 45.28 47.69 44.43 45.80 40.93 44.60 44.96 40.35 39.55 46.52 49.38 50.53 52.59 53.74 54.00 54.50 54.45 54.06 54.91 54.28 53.94 54.44 55.70 56.60 57.53 58.08
49.96 49.93 50.07 50.45 50.18 50.19 50.29 50.07 49.87 49.11 47.83 46.96 46.17 47.74 47.99 47.19 45.37 40.25 41.58 43.14 42.52 39.90 43.88 44.49 45.76 47.06 47.99 51.44 47.28 48.33 45.22 46.96 39.99 49.52 43.89 38.90 43.44 48.76 50.83 50.84 52.07 54.22 55.23 55.78 56.68 55.33 56.45 56.82 56.57 56.82 57.52 57.82 57.89 58.28
49.79 49.61 49.38 50.06 50.20 50.25 50.48 50.47 50.36 49.76 49.70 51.02 47.13 44.11 44.20 45.13 37.23 37.01 35.35 38.61 39.67 44.60 45.60 47.08 45.58 49.09 50.36 50.78 49.45 48.63 44.21 42.54 50.46 42.44 38.61 42.87 47.16 49.72 50.91 51.35 52.74 54.58 54.71 54.92 56.16 56.76 56.32 56.52 57.70 58.10 58.05 58.89 59.34 59.16
49.14 49.12 49.22 49.23 49.78 50.09 50.50 50.41 50.15 49.63 49.73 44.14 40.24 34.66 36.16 36.58 39.36 40.69 41.18 42.05 45.22 46.40 46.34 47.08 47.21 47.34 49.46 48.11 47.82 43.57 48.05 48.84 40.94 36.51 38.71 45.18 47.38 48.90 51.04 52.77 54.18 54.26 54.93 55.08 54.82 55.05 55.16 55.89 56.18 57.40 58.95 59.70 59.44 58.96
49.25 49.10 48.99 49.45 49.41 50.50 50.60 49.21 47.97 52.74 48.36 41.43 39.47 33.17 38.25 41.91 44.21 46.17 47.48 47.65 49.04 48.91 46.73 46.04 47.02 47.69 47.25 45.15 46.84 46.29 43.12 38.66 39.48 39.06 43.80 47.05 49.33 51.26 53.05 53.42 53.83 54.34 54.72 55.04 55.16 55.04 55.20 55.38 55.26 55.92 57.37 58.45 59.41 59.30
49.38 49.23 50.32 49.09 50.11 50.53 49.51 50.75 52.78 52.07 49.18 46.87 44.14 42.41 44.84 44.33 45.05 46.80 47.34 47.58 50.32 49.61 50.89 50.08 47.08 44.40 44.07 44.77 43.34 41.08 39.60 37.91 41.32 45.19 48.12 50.55 51.32 53.22 54.25 54.86 54.35 55.03 55.24 55.29 55.83 56.01 56.01 56.04 56.11 56.43 57.29 57.25 57.26 57.79
49.45 49.51 49.71 50.08 50.02 50.38 49.22 52.08 52.99 47.86 47.77 45.26 44.93 47.83 46.80 46.48 45.68 47.00 48.27 48.08 51.27 50.46 46.84 48.09 42.89 42.00 48.43 42.16 39.63 41.40 40.50 44.84 48.68 49.65 52.00 54.11 53.96 54.51 55.33 55.30 55.69 55.74 55.68 56.34 56.79 56.85 57.15 57.37 57.41 56.13 55.70 57.45 57.56 57.84
49.50 51.11 50.50 49.78 50.25 51.81 54.05 52.11 49.17 47.07 43.33 45.96 44.02 46.09 47.74 48.80 47.41 48.06 49.00 50.41 49.06 48.93 48.68 45.31 48.69 43.13 40.85 38.69 39.60 43.68 46.72 50.47 51.86 52.51 52.94 54.32 55.55 55.89 55.44 55.59 56.34 56.65 56.53 56.85 57.30 57.54 57.03 56.95 55.69 54.59 55.89 57.66 57.69 57.81
50.12 50.76 49.77 49.86 49.67 50.15 48.49 49.22 49.78 43.55 44.72 46.38 46.74 48.09 48.28 48.80 50.22 50.54 51.12 51.53 51.29 51.48 50.53 48.03 44.31 42.24 43.12 46.54 46.75 49.25 50.63 51.29 51.77 52.53 53.58 55.47 56.12 56.14 56.31 56.91 57.20 57.29 57.34 57.10 56.49 55.09 55.86 57.17 56.49 55.39 55.15 55.34 54.24 55.76
49.88 49.70 49.55 49.55 49.88 50.20 45.47 47.42 51.37 46.00 43.15 44.74 47.04 46.30 47.30 47.75 50.11 50.40 50.20 50.67 50.00 48.41 45.54 44.00 44.21 47.07 48.08 48.48 50.02 51.90 52.73 53.77 53.86 52.33 52.27 54.36 56.47 56.51 56.18 55.89 55.45 56.12 55.21 54.75 53.72 49.09 54.38 54.64 54.90 54.97 54.73 54.64 54.49 54.45
50.72 51.34 49.93 50.86 50.88 50.14 47.91 46.48 47.07 46.55 45.89 44.90 46.74 46.86 46.55 49.70 48.91 48.42 48.32 51.30 48.24 46.33 45.61 47.99 48.02 48.41 49.65 50.45 51.49 53.52 54.88 55.16 53.69 54.36 53.82 54.21 56.10 54.40 53.98 53.24 53.26 52.96 51.97 51.49 51.35 51.17 49.82 51.18 51.88 52.68 53.30 53.53 53.33 54.62
51.48 48.72 50.30 50.80 47.98 47.36 47.79 48.28 46.08 47.89 46.39 46.19 46.28 47.29 46.30 45.73 46.09 45.12 46.43 45.78 44.83 46.00 47.13 47.89 49.25 50.18 51.69 53.65 55.34 55.60 56.45 56.33 56.75 56.94 50.78 52.10 52.53 54.23 52.90 52.00 51.61 50.45 49.91 49.70 49.93 49.67 50.07 50.54 50.68 51.00 51.40 51.29 50.51 52.44
49.15 49.41 49.64 48.20 44.27 42.37 41.75 49.75 44.87 46.26 43.35 44.65 47.27 43.85 43.48 43.47 45.91 48.75 44.12 45.27 47.31 50.48 51.55 51.66 51.92 52.20 50.59 51.36 52.17 53.01 54.39 54.03 53.79 53.40 54.90 54.74 53.39 52.35 51.36 50.71 50.54 49.26 48.80 49.10 50.01 49.53 49.00 45.51 48.79 48.90 49.92 50.00 50.09 50.10
47.58 46.86 44.76 44.55 45.20 41.78 47.54 45.54 48.36 46.97 47.48 45.00 42.04 41.43 43.95 46.60 50.03 47.16 43.22 46.80 50.45 53.53 54.43 53.01 52.27 50.18 50.95 52.36 49.15 49.06 50.00 51.01 50.87 51.03 51.59 51.51 50.49 50.29 51.00 50.74 50.34 49.79 49.18 49.50 49.00 48.52 48.65 48.54 44.95 48.54 48.48 48.06 48.31 48.69
41.05 41.04 42.87 37.69 46.64 44.56 43.44 43.79 44.30 45.74 42.55 44.86 43.44 44.79 47.05 49.74 45.02 42.91 42.24 46.89 50.61 50.84 50.26 50.44 50.06 49.61 48.35 48.62 49.06 49.22 50.78 49.41 48.66 48.90 49.89 50.50 50.15 50.66 51.34 50.57 50.28 49.66 49.09 47.76 47.20 47.20 47.49 48.04 47.96 47.81 47.41 47.33 46.84 47.34
37.48 44.54 41.08 45.44 46.62 44.72 44.66 43.74 44.24 43.35 43.76 43.69 44.97 48.55 49.62 47.19 43.07 41.72 43.80 47.47 48.81 48.32 48.44 48.42 48.44 47.78 47.03 47.38 46.27 46.06 46.84 48.37 48.51 47.41 48.41 49.07 48.38 47.30 46.66 46.15 46.04 46.88 48.62 47.65 46.80 46.26 46.51 47.11 46.88 46.52 46.32 45.85 42.70 45.67
42.22 46.71 49.44 49.73 47.96 47.14 47.52 47.74 47.46 45.58 43.74 44.16 47.01 47.14 46.74 41.69 40.37 41.53 47.07 46.00 45.42 46.51 48.25 48.84 48.32 47.27 46.47 46.31 46.52 46.75 47.06 47.57 47.61 47.30 48.71 48.73 48.29 47.80 46.64 44.64 44.21 45.85 47.46 47.46 47.27 46.80 46.15 46.11 46.06 45.67 45.65 46.13 46.22 46.18
49.66 48.83 46.15 48.81 47.75 48.81 45.06 46.93 45.38 44.87 47.03 49.92 48.30 43.50 40.47 40.17 39.56 44.04 44.63 46.10 47.76 48.42 47.94 48.94 49.37 48.75 47.68 47.03 46.32 45.31 45.13 45.84 46.60 46.85 46.87 47.32 47.37 47.08 46.70 46.75 47.17 40.14 46.38 47.30 46.74 47.03 46.67 46.17 45.71 45.37 44.53 44.10 44.07 44.22
50.39 53.80 51.37 48.10 47.60 48.24 48.26 47.32 47.42 48.70 50.33 50.37 46.21 43.06 41.08 45.74 47.95 47.40 47.44 47.46 48.19 47.33 45.05 43.87 44.17 46.26 46.30 46.16 45.64 45.47 44.69 43.65 41.64 39.74 39.54 40.23 41.27 42.38 44.64 44.78 45.12 45.77 46.01 45.86 36.66 41.01 43.08 42.74 42.82 42.83 42.69 42.15 42.65 42.98
51.43 55.08 50.40 49.03 47.60 46.39 49.21 50.76 48.49 50.00 50.53 48.27 45.90 46.91 46.88 47.38 49.39 50.43 48.36 46.48 44.59 43.97 44.91 44.63 43.98 43.99 42.87 42.12 41.85 42.51 43.37 42.65 41.69 39.74 37.74 37.83 39.11 41.53 42.08 41.92 41.94 42.33 42.83 42.67 42.45 42.51 39.63 41.11 41.42 42.06 41.01 40.61 40.30 39.21
55.17 54.94 50.73 51.11 49.62 50.91 50.97 51.47 51.69 50.80 47.21 46.46 48.52 45.87 45.00 47.23 49.76 50.00 49.02 49.77 49.31 47.65 46.12 44.98 44.37 43.16 41.90 41.01 40.14 39.13 38.80 41.01 40.83 40.26 39.29 39.60 40.04 39.85 40.04 40.64 40.91 41.19 41.07 40.64 40.39 40.05 39.52 38.93 39.02 38.16 37.46 36.82 36.47 36.41
54.04 51.90 51.09 47.98 49.94 51.96 52.24 49.68 48.90 45.26 46.13 46.82 47.21 47.22 47.02 48.16 45.23 49.97 50.66 48.52 46.81 45.39 42.10 43.93 42.27 41.01 42.00 42.21 42.09 41.43 36.98 40.68 39.84 38.67 37.34 37.12 37.09 37.89 39.03 39.32 39.47 39.45 39.00 38.77 38.66 38.26 37.93 37.24 36.71 35.62 35.15 35.21 35.94 36.14
53.49 52.36 52.01 51.53 50.64 50.32 52.02 50.73 48.89 44.45 44.86 45.66 48.74 49.68 49.89 47.66 44.25 48.81 51.10 48.28 45.92 45.03 44.18 43.69 43.38 42.91 42.27 41.70 40.90 40.80 39.32 41.03 36.83 33.35 34.26 32.88 32.43 33.57 37.27 37.76 37.90 38.17 37.70 37.75 37.41 37.53 36.51 35.37 34.67 35.29 35.23 34.18 34.38 34.73
MSLP
1017.30 1016.56 1015.84 1015.23 1014.71 1014.25 1013.82 1013.44 1013.10 1012.86 1012.58 1012.39 1012.28 1012.29 1012.25 1012.25 1012.30 1012.80 1012.63 1012.79 1012.95 1012.04 1010.54 1009.46 1008.25 1007.70 1007.61 1007.36 1006.42 1005.05 1004.32 1003.43 1002.73 1001.15 998.94 996.65 993.72 991.67 990.73 990.54 991.50 991.71 991.74 991.32 991.59 992.40 993.22 994.70 994.38 993.62 994.13 993.12 992.14 991.12
1016.73 1015.92 1015.15 1014.50 1013.95 1013.49 1013.08 1012.78 1012.50 1012.27 1012.04 1011.94 1011.85 1011.84 1011.72 1011.76 1011.83 1012.12 1012.23 1011.97 1012.17 1012.17 1010.39 1008.72 1008.06 1007.49 1006.99 1006.79 1006.78 1006.46 1005.40 1004.91 1004.61 1002.90 1000.99 999.32 995.81 993.24 991.29 990.73 991.20 991.50 991.10 991.30 992.84 993.67 995.22 995.50 995.52 995.26 994.63 994.66 993.58 992.40
1016.18 1015.42 1014.54 1013.80 1013.24 1012.78 1012.50 1012.26 1012.08 1011.86 1011.73 1011.58 1011.61 1011.55 1011.41 1011.43 1011.56 1011.71 1011.69 1011.81 1011.86 1011.33 1009.51 1006.95 1005.19 1004.46 1005.07 1005.67 1006.18 1006.21 1005.50 1005.80 1005.57 1004.67 1003.51 1001.53 998.79 995.77 993.36 991.55 991.84 993.29 993.00 993.11 994.77 995.99 996.16 996.38 996.63 996.14 995.15 995.98 995.50 993.89
1015.70 1014.96 1014.05 1013.49 1013.15 1012.79 1012.43 1012.14 1011.88 1011.62 1011.53 1011.50 1011.44 1011.32 1011.25 1011.14 1011.21 1011.22 1011.16 1011.05 1011.15 1010.78 1008.86 1004.90 1003.73 1003.71 1003.69 1003.78 1004.63 1005.08 1005.34 1005.99 1006.33 1005.67 1004.19 1002.78 1000.29 997.67 996.40 995.58 995.62 996.47 995.78 994.99 995.67 996.72 997.21 997.67 997.22 997.34 997.07 997.25 996.98 995.73
1015.34 1014.83 1014.41 1013.90 1013.41 1012.92 1012.47 1012.15 1011.84 1011.68 1011.58 1011.48 1011.37 1011.17 1011.05 1011.07 1011.02 1010.80 1010.54 1010.22 1010.44 1010.59 1008.12 1005.43 1003.90 1002.40 1001.97 1002.83 1003.28 1004.44 1005.25 1006.04 1006.59 1005.73 1004.40 1003.22 1001.59 1000.14 998.71 998.47 999.16 999.42 998.51 996.45 995.73 996.89 997.25 998.79 998.70 998.90 998.40 998.67 998.34 997.23
1015.28 1014.76 1014.44 1014.02 1013.57 1013.03 1012.51 1012.23 1012.02 1011.84 1011.66 1011.50 1011.31 1011.09 1010.92 1010.87 1010.77 1010.36 1009.13 1010.34 1010.29 1009.97 1009.42 1006.48 1003.76 1002.59 1001.94 1001.97 1002.74 1003.79 1004.83 1005.45 1006.29 1005.30 1004.32 1003.61 1002.39 1002.10 999.36 1000.12 1001.00 1000.43 999.83 999.12 997.82 998.55 999.05 1000.01 1000.49 1000.25 1000.28 1000.31 999.53 998.45
1015.32 1014.93 1014.57 1014.16 1013.72 1013.26 1012.83 1012.45 1012.14 1011.92 1011.71 1011.46 1011.20 1011.02 1010.88 1010.87 1010.66 1010.05 1009.74 1010.17 1010.29 1010.47 1010.01 1007.38 1004.38 1002.20 1002.00 1002.16 1002.97 1003.73 1004.92 1005.01 1004.91 1004.84 1004.08 1003.20 1002.60 1000.51 1000.99 1001.72 1001.73 1001.17 1000.19 999.58 999.10 999.56 1000.53 1001.52 1002.29 1002.20 1001.25 1000.77 1000.01 999.73
1015.51 1015.13 1014.70 1014.24 1013.78 1013.33 1012.91 1012.49 1012.16 1011.93 1011.64 1011.29 1010.94 1010.74 1010.67 1010.48 1010.46 1010.09 1009.64 1009.88 1010.23 1010.34 1009.53 1007.67 1004.99 1002.36 1001.45 1001.66 1002.27 1003.65 1004.33 1004.85 1004.37 1003.55 1003.79 1003.21 1001.90 1001.36 1002.37 1002.90 1002.37 1002.14 1001.69 1001.63 1001.44 1001.31 1002.00 1003.00 1003.35 1002.68 1002.06 1001.98 1000.56 1000.51
1015.71 1015.23 1014.74 1014.30 1013.83 1013.38 1013.00 1012.58 1012.21 1011.77 1011.29 1010.81 1010.50 1010.14 1009.82 1009.62 1009.14 1009.44 1009.40 1009.37 1009.89 1010.06 1009.08 1007.53 1004.48 1001.84 1000.56 1000.64 1002.02 1003.02 1003.55 1002.92 1002.11 1002.61 1003.09 1003.10 1002.83 1003.08 1003.57 1003.55 1003.10 1002.78 1002.78 1003.13 1002.91 1003.09 1003.41 1003.24 1003.85 1003.45 1002.62 1001.97 1001.02 1001.44
1015.86 1015.34 1014.82 1014.36 1013.88 1013.48 1013.08 1012.59 1012.00 1011.33 1010.69 1010.24 1009.79 1008.94 1008.06 1008.29 1009.00 1009.19 1009.19 1009.06 1009.11 1008.94 1008.67 1006.77 1003.65 1001.58 1000.81 1000.23 1001.44 1002.68 1001.81 1001.35 1001.83 1002.62 1003.08 1003.51 1003.69 1004.03 1004.05 1004.06 1003.90 1003.77 1003.73 1003.75 1004.05 1004.16 1003.97 1003.69 1003.13 1002.88 1002.34 1001.88 1001.53 1001.32
1016.10 1015.53 1014.96 1014.42 1013.93 1013.50 1013.02 1012.58 1012.05 1011.11 1010.21 1009.89 1009.71 1009.33 1008.33 1008.26 1007.93 1007.54 1007.18 1007.03 1007.08 1007.35 1007.35 1005.52 1003.27 1001.90 1001.03 1000.43 1000.11 1000.35 1000.11 1000.08 1001.17 1002.06 1002.50 1003.86 1004.39 1004.76 1004.85 1004.48 1004.14 1003.86 1003.83 1004.03 1003.80 1004.16 1004.03 1003.58 1003.56 1002.60 1001.98 1002.04 1001.80 1001.72
1016.21 1015.62 1015.11 1014.50 1014.01 1013.55 1012.99 1012.48 1012.04 1011.35 1010.96 1011.19 1011.29 1010.84 1009.50 1007.77 1006.85 1006.72 1005.67 1005.47 1005.18 1005.56 1005.30 1004.10 1002.59 1001.61 1000.68 1000.21 999.42 999.15 998.63 998.99 1000.36 1001.56 1002.68 1004.52 1005.55 1005.45 1005.20 1004.71 1004.59 1003.94 1003.34 1003.30 1003.24 1003.42 1003.59 1003.13 1002.82 1002.57 1002.11 1002.01 1001.99 1001.86
1016.09 1015.59 1015.09 1014.55 1014.00 1013.46 1012.79 1012.20 1011.92 1011.50 1010.85 1010.46 1010.38 1009.70 1008.87 1007.73 1007.20 1006.47 1005.86 1005.48 1005.27 1004.56 1004.19 1003.54 1002.13 1000.99 999.94 999.51 998.71 998.35 998.32 999.64 1000.02 1001.80 1004.22 1005.39 1005.79 1005.77 1005.54 1005.03 1004.27 1003.76 1003.64 1003.31 1003.02 1002.98 1002.92 1002.90 1002.72 1002.46 1002.24 1002.15 1002.32 1002.42
1015.92 1015.44 1014.88 1014.32 1013.74 1013.08 1012.40 1011.75 1011.31 1011.00 1010.63 1010.12 1010.15 1009.87 1009.60 1008.58 1007.91 1006.85 1006.14 1005.61 1005.55 1004.85 1004.22 1003.45 1002.01 1000.71 1000.05 999.23 999.17 998.72 999.42 999.68 1001.25 1003.50 1004.97 1005.89 1006.07 1005.95 1005.48 1004.93 1004.14 1003.84 1003.52 1003.09 1002.96 1003.00 1002.90 1002.90 1002.88 1002.90 1002.73 1002.81 1002.60 1002.59
1015.69 1015.11 1014.54 1013.89 1013.38 1012.82 1012.15 1011.62 1011.34 1010.85 1010.56 1010.69 1010.96 1010.57 1009.67 1008.84 1007.70 1006.35 1005.59 1004.99 1004.33 1004.02 1004.40 1002.76 1001.61 1000.81 1000.19 1000.39 1000.73 1000.71 1000.75 1002.38 1003.96 1005.00 1005.74 1006.23 1006.25 1005.72 1005.29 1005.14 1004.67 1004.42 1004.13 1003.70 1003.56 1003.29 1003.16 1003.30 1003.10 1003.17 1003.13 1003.17 1002.96 1003.13
1015.44 1014.67 1014.02 1013.64 1013.11 1012.50 1011.87 1011.19 1010.88 1010.76 1010.52 1010.36 1010.39 1009.71 1008.89 1007.56 1006.39 1005.46 1004.99 1004.37 1004.11 1003.55 1002.98 1002.26 1001.28 1001.01 1001.46 1001.94 1001.96 1002.82 1003.48 1004.54 1005.59 1005.98 1006.23 1006.38 1006.31 1005.93 1005.65 1005.37 1005.26 1004.84 1004.37 1003.98 1003.84 1003.64 1003.64 1003.60 1003.44 1003.38 1003.38 1003.55 1003.46 1003.47
1015.50 1014.67 1014.44 1013.67 1012.92 1012.20 1011.73 1010.88 1010.24 1010.03 1009.64 1009.59 1009.51 1008.97 1008.40 1007.50 1006.89 1005.76 1005.25 1004.81 1004.32 1002.88 1002.43 1002.13 1002.49 1002.91 1002.76 1003.34 1004.52 1005.76 1005.94 1006.06 1005.91 1006.03 1006.15 1006.29 1006.19 1006.03 1005.64 1005.32 1004.97 1004.71 1004.41 1004.25 1003.97 1003.87 1003.99 1003.91 1003.54 1003.38 1003.47 1003.71 1003.69 1003.98
1015.10 1014.55 1014.47 1014.03 1013.09 1011.78 1011.13 1010.78 1010.32 1009.93 1009.80 1009.81 1009.28 1009.13 1008.54 1007.67 1007.05 1006.35 1005.88 1005.22 1004.61 1003.91 1003.54 1003.78 1003.77 1004.13 1004.71 1005.68 1006.25 1006.92 1006.56 1006.46 1006.37 1006.09 1005.88 1006.11 1006.21 1005.86 1005.62 1005.40 1005.15 1004.93 1004.76 1004.57 1004.37 1004.27 1004.09 1003.91 1003.23 1003.13 1003.56 1003.79 1003.55 1003.27
1015.69 1015.21 1014.74 1014.16 1013.59 1012.79 1011.52 1011.08 1011.15 1010.40 1010.27 1010.30 1010.02 1009.28 1008.63 1007.72 1007.56 1007.02 1006.20 1005.74 1005.38 1004.91 1004.45 1004.56 1005.18 1006.17 1006.90 1007.33 1007.20 1007.00 1006.70 1006.67 1006.45 1006.08 1006.15 1006.25 1006.07 1005.89 1005.80 1005.49 1005.27 1005.08 1004.98 1004.85 1004.98 1004.81 1004.56 1004.36 1004.04 1003.82 1003.64 1003.52 1003.23 1003.14
1015.29 1014.99 1014.62 1014.00 1013.51 1012.50 1011.71 1011.69 1011.62 1011.04 1010.78 1010.90 1010.24 1009.72 1009.10 1008.65 1008.02 1007.33 1007.04 1006.34 1005.83 1005.62 1006.10 1006.85 1007.59 1008.05 1008.14 1008.28 1008.09 1007.46 1007.12 1006.87 1006.42 1006.15 1006.18 1006.34 1006.30 1006.06 1006.01 1005.80 1005.55 1005.41 1005.12 1005.35 1005.50 1005.44 1004.69 1004.38 1004.26 1004.20 1004.19 1004.43 1003.99 1003.49
1014.87 1014.49 1014.23 1013.70 1013.08 1012.80 1012.73 1012.49 1011.87 1012.23 1011.88 1011.07 1010.73 1010.33 1009.74 1009.13 1008.73 1008.50 1008.27 1007.66 1007.47 1007.94 1008.52 1009.26 1009.40 1009.44 1009.33 1008.93 1008.60 1008.14 1007.87 1007.70 1007.52 1007.38 1007.29 1007.07 1006.86 1006.42 1006.07 1006.02 1005.89 1005.70 1005.66 1005.61 1005.45 1005.45 1005.32 1005.15 1005.31 1005.11 1004.83 1004.81 1004.79 1004.34
1015.37 1015.32 1014.42 1013.88 1013.38 1013.06 1012.88 1013.16 1012.91 1012.56 1012.02 1011.43 1011.00 1010.74 1010.42 1010.23 1010.25 1010.67 1010.80 1009.98 1010.10 1010.64 1010.68 1010.61 1010.48 1010.17 1009.52 1009.01 1008.67 1008.51 1008.49 1008.13 1007.89 1007.76 1007.58 1007.32 1006.94 1006.93 1006.51 1006.64 1006.53 1006.56 1006.82 1006.84 1006.56 1006.29 1006.20 1006.33 1006.48 1006.18 1005.73 1005.61 1005.30 1005.06
1015.93 1015.48 1014.66 1014.13 1013.66 1013.50 1013.65 1013.08 1012.50 1012.38 1011.97 1011.81 1011.27 1011.26 1011.61 1011.66 1011.55 1011.75 1011.67 1011.77 1011.74 1011.76 1011.55 1011.07 1010.67 1010.47 1010.06 1009.75 1009.29 1009.11 1008.85 1008.47 1008.18 1007.91 1007.58 1007.23 1007.33 1007.40 1007.31 1007.36 1007.34 1007.30 1007.17 1007.28 1007.22 1007.02 1006.94 1007.18 1006.72 1006.66 1006.26 1005.98 1005.69 1005.39
1016.40 1015.62 1014.77 1014.40 1014.00 1013.81 1013.44 1012.86 1012.76 1012.57 1012.32 1012.21 1012.17 1012.06 1011.99 1011.97 1012.01 1011.90 1012.37 1012.38 1012.30 1011.85 1011.51 1011.23 1010.69 1010.06 1009.86 1009.70 1009.57 1009.73 1009.35 1008.77 1008.31 1008.17 1008.20 1007.56 1007.43 1007.93 1007.85 1007.67 1007.68 1007.89 1008.14 1007.80 1007.60 1007.55 1007.34 1007.24 1007.37 1006.81 1006.64 1006.40 1006.12 1005.94
1016.24 1016.14 1015.45 1015.01 1014.40 1013.78 1013.18 1012.81 1012.67 1012.36 1012.25 1012.30 1011.98 1011.72 1011.67 1012.07 1011.96 1012.77 1013.45 1013.19 1012.64 1012.32 1011.91 1011.35 1011.08 1010.78 1010.54 1010.48 1010.42 1010.41 1010.47 1009.92 1009.39 1008.68 1009.00 1008.64 1008.32 1007.86 1007.86 1008.00 1008.01 1008.38 1008.64 1008.46 1008.21 1008.08 1007.85 1007.66 1007.51 1007.37 1007.25 1007.10 1007.20 1006.94
1015.60 1015.32 1015.12 1014.50 1014.17 1013.76 1013.41 1012.80 1012.76 1012.75 1012.51 1012.14 1012.06 1012.01 1012.00 1011.76 1011.97 1013.35 1014.26 1014.47 1013.39 1013.01 1012.68 1012.27 1011.79 1011.64 1011.77 1011.93 1011.77 1011.61 1011.46 1011.23 1010.70 1010.00 1009.95 1009.77 1009.51 1009.36 1009.13 1008.91 1008.71 1008.79 1009.29 1009.43 1009.06 1008.73 1008.41 1008.16 1007.99 1007.96 1007.78 1007.64 1007.55 1007.56
1014.71 1014.33 1014.32 1014.65 1014.36 1013.99 1013.29 1013.25 1013.17 1012.89 1012.26 1011.89 1011.85 1011.74 1011.82 1012.16 1013.89 1015.27 1015.43 1015.24 1014.88 1014.72 1014.21 1013.58 1013.15 1012.83 1012.77 1012.85 1012.88 1012.83 1012.55 1012.03 1011.55 1011.21 1010.84 1010.75 1010.56 1010.69 1010.68 1010.54 1010.27 1010.49 1010.62 1009.98 1009.64 1009.28 1008.93 1008.64 1008.33 1008.22 1008.09 1007.99 1007.85 1007.65
1014.19 1013.97 1013.54 1013.49 1013.53 1013.44 1012.92 1012.45 1012.30 1012.03 1011.83 1012.02 1012.15 1012.51 1013.50 1014.25 1015.27 1015.84 1016.05 1016.18 1015.92 1015.67 1014.91 1014.60 1014.31 1014.10 1013.77 1013.62 1013.58 1013.48 1013.25 1012.95 1012.49 1012.14 1011.54 1010.88 1011.13 1011.31 1011.84 1011.55 1011.17 1011.34 1010.79 1010.42 1010.51 1009.96 1009.72 1009.46 1009.21 1008.97 1008.81 1008.73 1008.60 1008.63
1013.17 1012.78 1013.01 1012.37 1012.52 1012.53 1012.34 1012.13 1012.00 1012.22 1012.45 1012.31 1012.75 1013.83 1015.15 1015.71 1015.80 1015.87 1016.01 1016.09 1016.15 1016.17 1016.24 1016.22 1015.70 1015.00 1014.69 1014.35 1014.13 1013.92 1014.09 1014.04 1013.73 1013.28 1012.87 1012.47 1012.41 1012.63 1012.83 1012.49 1011.97 1011.51 1011.13 1010.85 1011.45 1011.23 1011.17 1011.00 1010.74 1010.34 1009.93 1009.65 1009.34 1009.09
1011.82 1012.07 1011.73 1011.47 1011.45 1011.94 1012.32 1012.34 1012.92 1013.30 1013.26 1013.77 1014.79 1015.28 1015.86 1016.37 1016.78 1016.76 1016.64 1016.72 1016.80 1016.71 1016.46 1016.02 1015.91 1015.63 1015.21 1014.98 1014.83 1014.76 1015.03 1015.44 1015.45 1015.29 1014.85 1014.31 1014.11 1013.98 1013.76 1013.36 1012.98 1012.60 1012.26 1011.92 1011.48 1011.15 1010.97 1010.94 1010.52 1010.18 1010.09 1009.97 1009.83 1009.88
1011.60 1011.35 1011.11 1011.11 1011.40 1012.16 1012.61 1013.28 1013.74 1014.34 1015.26 1015.64 1015.98 1016.16 1016.47 1016.85 1017.14 1017.16 1016.86 1016.62 1016.23 1016.00 1016.00 1015.95 1015.95 1016.39 1016.17 1016.04 1016.18 1016.18 1016.04 1016.50 1016.79 1016.80 1016.98 1016.21 1015.62 1015.29 1014.96 1014.37 1013.93 1013.48 1013.07 1012.72 1012.27 1011.92 1011.80 1011.69 1011.31 1010.92 1010.85 1010.82 1010.83 1010.75
1011.02 1010.99 1010.88 1010.66 1011.64 1012.62 1012.87 1013.28 1014.34 1015.19 1015.69 1015.87 1016.04 1016.31 1016.39 1016.08 1015.73 1016.54 1017.06 1016.35 1016.06 1016.12 1016.81 1016.68 1016.83 1017.09 1017.34 1017.10 1017.20 1017.26 1017.65 1017.20 1017.56 1017.92 1017.98 1017.66 1017.24 1016.74 1015.86 1015.34 1014.90 1014.45 1014.03 1013.49 1013.08 1012.69 1012.53 1012.30 1012.03 1012.11 1011.90 1011.65 1011.40 1011.15
1010.55 1010.28 1010.36 1010.59 1011.22 1011.74 1012.19 1012.94 1013.68 1015.10 1015.55 1015.63 1015.20 1015.22 1015.25 1015.34 1015.91 1016.89 1017.07 1017.15 1017.20 1017.02 1017.13 1017.36 1017.52 1017.78 1018.08 1018.03 1018.11 1017.77 1017.74 1017.67 1018.26 1018.51 1018.57 1018.56 1018.29 1017.80 1016.81 1016.35 1015.90 1015.28 1014.69 1014.01 1013.62 1013.19 1012.94 1012.89 1012.73 1012.49 1012.22 1012.12 1011.82 1011.51
Wind_Speed
23 24 24 24 23 22 20 18 17 17 16 15 14 12 12 10 9 8 3 7 6 4 12 24 23 18 11 8 5 10 8 2 4 6 6 9 12 8 17 20 22 21 16 13 12 12 16 6 5 5 7 12 12 11
23 24 24 24 23 21 18 18 17 16 13 11 7 9 9 7 4 4 3 5 8 5 7 21 21 21 20 22 15 7 12 8 3 4 4 5 7 6 11 13 7 19 15 11 6 3 7 4 2 2 4 7 11 0
23 24 23 22 19 18 17 15 11 11 10 8 5 8 6 5 5 7 3 1 3 4 10 18 16 15 22 23 17 9 8 3 4 6 4 4 8 5 5 5 13 3 8 5 10 6 8 11 11 10 14 7 4 9
21 22 19 15 13 12 12 11 11 9 3 4 6 7 7 5 6 8 5 5 4 3 6 6 3 6 6 14 22 24 15 3 3 4 3 4 5 7 5 5 5 6 6 11 14 12 13 11 12 12 12 11 10 15
18 16 17 15 13 12 12 9 7 5 5 6 7 7 3 6 8 6 6 7 8 5 7 12 22 8 3 16 14 18 17 11 2 4 3 2 5 6 1 3 4 7 5 4 8 11 12 10 10 8 10 9 10 14
16 15 12 14 15 14 11 7 7 8 8 7 8 10 6 4 4 5 4 5 5 5 4 6 8 6 4 7 14 15 10 10 3 3 2 1 7 6 1 3 8 9 7 6 6 12 18 14 10 7 5 6 10 15
13 13 12 13 14 12 12 10 10 9 8 8 8 8 7 5 5 4 5 3 4 1 2 5 5 1 7 13 9 10 8 4 5 3 4 2 4 6 4 3 11 5 6 7 14 17 15 13 9 11 5 5 10 11
13 12 12 14 13 12 12 12 10 10 10 10 11 10 8 8 7 4 2 6 5 2 3 4 5 5 11 10 9 5 4 2 5 5 1 3 4 3 4 7 8 10 16 17 16 17 15 13 7 7 3 2 11 8
12 13 13 13 11 13 11 12 12 14 14 14 14 13 5 5 2 1 3 9 4 1 2 3 4 3 3 8 8 2 5 6 3 2 1 3 3 5 5 8 11 12 10 14 15 13 12 11 8 5 3 5 9 6
13 13 12 11 11 12 12 14 16 18 14 10 6 3 2 3 5 5 4 4 5 5 1 4 5 4 4 7 4 5 6 1 0 1 4 3 3 10 11 11 9 8 12 11 16 8 10 8 6 3 6 5 6 6
13 13 12 12 11 11 12 14 17 21 8 4 5 4 7 4 5 4 2 3 3 3 4 5 6 6 2 3 5 8 4 7 2 2 1 4 5 7 10 11 9 5 11 11 11 14 11 8 6 3 7 4 6 8
12 12 12 11 12 13 14 14 13 10 6 6 4 5 5 4 3 4 3 1 3 3 3 6 7 6 4 2 5 5 3 2 5 4 4 4 4 8 8 5 1 6 9 11 11 9 7 7 7 6 7 8 8 9
12 12 12 13 14 18 18 17 15 12 10 2 3 3 4 3 4 7 7 3 3 5 3 7 7 4 4 4 3 2 4 4 5 6 4 3 3 5 7 3 7 8 9 9 10 10 10 10 10 10 9 9 9 9
13 14 14 15 17 22 20 17 12 6 3 3 6 6 6 5 5 4 7 6 5 6 7 8 6 4 3 2 4 5 5 3 6 4 4 5 8 4 3 3 8 9 9 10 11 10 11 10 10 10 10 8 8 10
16 15 14 13 23 22 19 11 5 2 3 4 3 5 4 6 7 6 5 5 3 5 4 7 5 2 5 6 5 4 4 6 6 4 3 4 4 3 7 7 7 7 7 9 9 10 11 10 9 10 10 9 10 9
18 14 7 22 24 23 12 7 1 1 2 1 2 4 8 6 10 11 9 8 7 7 4 4 3 4 7 4 5 9 5 6 4 3 4 3 4 5 7 7 7 6 8 8 8 8 8 7 7 7 7 7 8 8
16 5 15 21 25 20 7 4 2 4 5 5 4 5 7 6 10 10 10 10 9 5 5 3 6 6 2 6 5 5 4 4 5 5 5 6 7 7 7 7 7 7 8 8 7 7 6 5 5 6 6 5 5 5
5 13 15 19 19 8 3 4 3 4 5 5 6 10 9 7 10 10 9 9 8 6 6 5 4 8 6 4 3 1 2 4 2 3 6 6 5 5 6 6 6 6 6 6 6 5 4 6 5 6 5 4 3 2
14 13 14 18 10 5 5 4 5 4 5 4 7 7 7 8 9 8 8 8 4 3 1 3 6 6 6 5 8 7 6 5 3 4 4 5 6 7 6 6 5 7 8 8 8 7 6 5 5 5 5 5 6 4
16 10 14 12 9 3 3 3 3 4 5 5 6 8 5 8 8 8 10 10 9 8 9 7 6 6 7 5 5 5 5 5 3 3 4 5 5 6 9 7 7 6 5 5 6 8 6 6 7 6 7 6 6 7
9 9 11 6 3 4 3 4 3 4 4 4 7 5 5 6 9 11 10 9 9 9 8 8 9 7 6 5 4 5 5 5 5 4 4 4 6 5 7 6 7 7 7 7 7 7 8 9 9 8 8 7 8 7
4 11 4 4 4 3 3 4 4 4 4 4 5 5 5 7 8 7 7 6 4 4 3 4 4 5 6 9 7 7 7 7 7 4 2 0 3 5 5 5 5 6 6 7 7 8 8 8 8 9 8 8 8 7
7 3 2 4 3 4 2 4 4 5 5 5 4 5 5 5 4 3 3 2 3 2 2 3 6 6 10 11 14 15 13 10 7 8 7 6 6 4 4 5 6 6 6 7 7 8 8 7 7 8 8 8 8 7
3 4 5 5 5 4 3 4 2 3 2 3 4 3 3 4 5 4 5 6 5 4 7 9 5 6 8 11 12 12 12 11 9 8 9 7 5 5 4 4 4 5 6 7 7 7 7 7 6 7 8 9 9 9
3 5 4 5 2 4 5 4 5 3 4 4 1 2 3 3 2 4 4 6 7 8 6 7 8 10 10 10 10 11 14 12 11 9 9 9 7 5 2 3 3 4 7 9 9 9 9 8 7 8 9 9 10 11
4 3 3 4 2 5 5 6 6 6 4 4 4 3 2 3 4 5 4 8 8 9 9 9 10 9 10 11 10 10 11 11 10 10 9 9 9 9 9 9 9 8 10 10 10 11 10 9 9 11 10 10 7 10
3 5 2 1 2 1 2 1 0 2 3 4 3 4 3 3 7 5 5 7 6 8 8 8 8 9 9 10 9 9 9 10 10 8 5 4 5 6 7 9 10 9 10 10 10 11 11 10 10 9 9 10 11 11
3 1 4 3 1 1 4 3 3 4 4 2 2 6 5 5 5 2 2 4 4 4 4 8 9 10 9 8 6 8 9 10 11 11 10 8 9 11 13 10 11 9 10 9 8 10 11 11 11 12 12 11 11 10
2 1 2 2 2 2 2 4 5 4 5 4 3 4 4 2 5 5 5 7 10 11 11 9 8 8 8 8 9 8 10 10 13 16 16 10 10 9 11 11 11 10 10 11 9 7 7 8 9 9 11 10 10 9
4 1 4 3 4 4 4 5 8 8 8 7 5 9 9 8 8 7 5 4 3 3 2 4 6 9 10 10 10 11 10 10 10 11 12 11 11 11 11 11 11 11 10 11 11 12 7 11 10 8 10 10 10 10
3 2 3 2 4 5 8 9 9 10 7 5 5 5 3 3 3 3 2 2 2 5 7 8 8 10 10 10 9 9 8 9 13 14 14 12 12 12 12 11 11 11 11 12 12 11 12 11 11 11 11 12 13 11
4 5 5 5 4 5 6 4 4 3 1 1 3 3 3 4 2 4 4 7 7 8 6 7 8 9 9 8 8 7 5 7 8 10 14 11 11 12 11 10 10 10 11 10 10 10 11 12 11 12 11 11 11 11
3 5 4 3 4 5 6 5 4 4 2 2 2 1 1 4 6 5 3 5 7 7 7 7 7 7 8 9 10 8 7 9 10 8 7 8 11 12 10 9 10 11 13 10 10 11 12 14 11 12 12 12 11 11
Wind_Direction
311 309 307 306 304 302 301 304 300 295 292 291 282 276 280 272 253 187 225 199 212 246 271 279 277 267 247 265 291 347 303 178 273 248 227 231 245 225 215 178 185 196 197 210 229 216 224 5 210 243 359 324 311 277
316 317 314 309 306 306 298 295 297 291 286 299 278 288 284 264 226 180 242 204 218 236 274 302 282 265 258 259 260 260 300 333 284 304 343 317 274 262 219 187 164 197 210 209 257 168 86 78 75 51 24 1 347 56
316 319 317 314 312 309 298 300 307 307 297 297 282 297 292 214 227 223 239 123 197 262 267 249 254 248 228 232 230 239 229 220 250 346 311 292 278 325 244 264 147 96 125 141 169 125 91 100 82 59 69 69 50 54
324 330 341 352 358 349 345 329 316 315 313 302 304 299 279 281 244 242 229 217 234 277 283 308 330 257 231 217 211 217 236 86 320 298 257 269 278 341 353 359 3 360 296 144 100 126 110 78 68 71 75 70 71 77
334 340 347 353 344 343 346 2 17 8 332 313 311 321 360 359 315 277 257 241 221 247 304 307 297 259 233 212 201 203 217 215 312 305 252 279 305 308 85 134 48 345 345 226 158 145 112 86 57 40 62 77 69 70
338 342 356 2 358 350 353 354 358 354 341 323 317 318 328 321 258 263 237 34 297 244 274 299 342 288 313 169 188 187 194 189 239 287 303 237 276 284 283 97 11 334 267 261 107 108 96 94 52 35 62 63 63 70
357 357 358 353 350 358 5 0 349 341 334 323 318 312 306 317 263 274 347 7 113 169 240 263 285 82 102 119 130 144 139 200 228 262 245 249 252 259 56 47 339 6 55 108 114 117 83 60 57 314 40 96 87 83
1 357 349 346 345 350 347 341 345 336 324 312 301 296 289 271 267 275 261 194 155 226 264 289 279 241 187 150 129 141 153 198 222 246 135 262 267 73 66 28 21 89 78 61 60 75 90 99 75 357 280 186 82 57
355 346 338 337 351 349 355 356 345 328 313 302 297 294 252 217 233 195 248 194 173 90 285 257 286 66 312 79 105 132 182 212 183 146 287 347 354 52 48 40 32 61 81 94 68 52 69 94 146 224 63 36 86 98
358 352 357 354 359 357 1 350 338 330 319 299 274 256 238 99 7 138 209 199 186 191 261 259 302 310 345 125 94 186 210 162 81 144 117 16 73 50 44 40 29 72 91 76 76 67 53 344 18 46 65 48 56 65
1 1 0 1 2 351 341 340 341 328 270 351 348 312 339 326 234 209 266 240 139 213 210 250 287 325 115 223 170 210 164 171 113 148 329 52 23 62 51 28 7 52 130 145 155 161 166 181 175 136 92 78 74 77
344 342 344 346 343 335 329 327 329 333 329 319 297 288 271 263 261 269 244 225 287 39 336 298 326 310 298 272 246 157 230 168 92 115 64 66 11 39 87 85 41 71 81 101 105 103 112 108 104 87 77 69 65 56
320 324 328 326 338 335 330 327 323 310 296 242 235 297 324 350 338 359 11 19 342 341 354 318 314 338 253 218 250 326 73 90 149 48 65 68 100 48 41 3 94 90 90 86 90 97 94 82 64 59 67 68 63 64
324 315 307 314 317 333 333 329 324 320 295 15 9 12 9 353 350 336 342 331 309 314 312 309 294 348 337 11 353 14 45 33 66 59 49 69 59 13 78 26 70 76 78 84 83 78 72 66 69 60 62 59 61 53
318 312 308 308 332 337 339 343 354 344 24 53 32 20 339 294 274 302 320 294 310 277 286 286 251 304 17 51 347 356 51 68 36 53 67 87 75 33 69 59 62 62 66 66 67 67 65 57 64 67 57 55 55 55
328 307 328 332 332 336 330 298 277 306 101 122 100 351 345 343 355 360 3 356 360 326 262 244 348 27 37 3 31 24 42 41 73 73 75 95 71 63 64 63 59 47 53 56 53 48 53 42 48 54 66 54 59 49
316 344 343 328 329 320 308 304 317 16 2 23 9 10 354 344 349 352 350 355 330 314 15 3 40 27 344 30 39 18 42 61 73 94 88 59 49 44 33 36 35 36 33 29 30 40 31 26 40 49 37 55 51 54
312 331 339 331 329 319 330 357 347 7 24 25 352 355 340 340 347 357 349 352 352 11 22 46 357 26 45 40 47 344 13 62 40 43 56 55 38 25 16 16 14 15 17 10 11 352 352 2 343 45 37 34 259 91
314 316 325 329 332 308 345 35 342 15 20 3 341 349 344 351 13 349 9 12 28 323 15 33 56 39 51 38 30 34 33 38 37 49 61 34 15 8 349 358 359 12 15 27 12 356 349 1 1 1 3 8 4 23
302 293 344 325 316 316 4 40 311 345 8 350 340 347 348 2 356 9 30 16 37 38 36 45 52 43 44 28 355 16 13 14 350 120 90 36 4 358 19 359 11 359 33 43 68 9 32 36 29 18 18 348 330 353
295 4 324 318 18 25 41 349 39 15 327 331 354 353 1 6 22 28 21 23 56 38 52 33 27 17 350 337 335 337 14 19 28 29 29 16 11 1 30 38 40 37 34 32 25 34 26 24 14 3 359 7 353 356
343 331 307 344 6 26 63 27 337 336 301 343 358 356 17 20 13 16 335 19 42 24 15 10 2 342 351 15 16 30 13 19 18 13 273 155 357 12 15 27 31 44 39 22 11 8 4 7 357 339 335 348 320 330
300 291 325 345 1 45 3 338 9 14 9 16 357 30 13 353 338 311 57 357 3 345 336 5 17 62 53 39 42 36 28 28 25 20 10 27 40 50 60 46 36 21 12 19 355 356 349 342 353 337 334 330 334 330
216 354 4 15 9 16 326 24 11 2 47 25 17 10 333 336 325 36 37 17 25 30 51 52 36 70 71 55 50 37 17 10 13 39 6 359 35 44 22 22 28 34 3 349 354 348 344 346 325 342 346 335 332 332
359 5 14 1 352 331 12 12 16 18 31 28 26 59 26 331 43 65 41 7 36 58 61 70 60 42 39 36 31 28 19 9 357 359 25 352 342 318 356 350 359 40 6 350 349 343 341 337 337 345 335 344 343 329
64 48 17 11 32 342 1 350 15 7 344 354 28 352 311 313 59 58 52 356 22 35 35 29 30 44 41 27 19 13 6 1 355 356 14 356 7 357 353 346 346 353 15 342 336 331 327 331 330 333 328 333 323 300
44 40 78 67 326 311 243 266 251 316 341 358 356 334 329 43 49 20 346 19 38 28 27 27 33 35 32 26 19 13 6 355 6 355 352 355 15 26 5 347 343 4 331 322 330 330 322 315 320 328 327 334 331 344
11 317 334 37 275 272 331 348 355 358 354 28 276 28 43 29 50 63 34 355 339 300 16 31 28 26 22 20 18 13 11 4 0 1 350 6 16 16 6 344 351 336 319 360 353 334 350 339 343 342 345 338 340 348
271 36 268 294 155 164 352 1 9 25 350 310 32 72 95 62 64 54 40 47 32 27 22 15 6 7 13 12 13 23 29 9 4 6 5 6 5 8 358 352 349 350 353 349 67 39 24 351 342 343 336 328 328 327
46 340 290 308 5 69 36 23 64 53 42 64 94 112 99 80 46 33 56 70 70 81 25 29 23 9 9 9 9 13 48 24 21 13 357 358 357 354 351 350 349 349 349 345 342 341 359 346 321 310 338 340 337 350
334 284 271 285 58 84 104 94 77 65 69 52 40 92 106 160 177 108 62 26 346 35 15 17 26 25 8 18 19 10 18 31 19 13 8 346 352 353 345 346 349 346 349 346 343 343 349 339 337 343 346 346 351 343
336 353 345 27 95 139 157 151 87 107 132 139 149 184 215 232 100 94 5 350 12 18 44 19 24 29 21 20 28 38 340 14 28 12 13 3 359 353 346 1 356 357 353 351 353 353 356 356 357 2 354 349 345 346
313 20 47 92 138 175 197 192 136 108 117 256 101 123 70 19 62 52 94 38 19 18 27 32 34 42 36 28 19 10 5 18 96 90 56 24 359 345 345 10 1 2 353 357 357 351 4 5 359 352 349 349 344 344